When you browse on this site, cookies collect data to enhance your experience and personalize the content and advertising you see.
Visit our Privacy Policy to learn more. By continuing to use the site, you agree to this use of cookies and data.
  • In Romania
  • List of Countries
  • For 7 days
  • Water Temperature
  • Weather Map
  • Weather Widgets
  • user-avatar
    Login

    Hourly Weather Kumasi

    Today, 7 December, Saturday

    Time Temperature Precipitation Wind Pressure Humidity
    00:00 +29°C° 0 mm 2 mps 755 mmHg 74%
    01:00 +28°C° 0 mm 2 mps 755 mmHg 76%
    02:00 +28°C° 0 mm 2 mps 754 mmHg 77%
    03:00 +28°C° 0 mm 1 mps 754 mmHg 79%
    04:00 +27°C° 0 mm 1 mps 754 mmHg 79%
    05:00 +27°C° 0 mm 1 mps 755 mmHg 79%
    06:00 +25°C° 0 mm 0 mps 755 mmHg 80%
    07:00 +29°C° 0 mm 1 mps 755 mmHg 72%
    08:00 +31°C° 0 mm 1 mps 755 mmHg 65%
    09:00 +32°C° 0 mm 1 mps 756 mmHg 57%
    10:00 +34°C° 0 mm 1 mps 755 mmHg 50%
    11:00 +36°C° 0 mm 1 mps 754 mmHg 44%
    12:00 +37°C° 0 mm 1 mps 754 mmHg 38%
    13:00 +38°C° 0 mm 2 mps 753 mmHg 41%
    14:00 +37°C° 0 mm 3 mps 753 mmHg 44%
    15:00 +36°C° 0 mm 4 mps 752 mmHg 47%
    16:00 +34°C° 0 mm 4 mps 753 mmHg 53%
    17:00 +33°C° 0 mm 4 mps 753 mmHg 60%
    18:00 +32°C° 0 mm 4 mps 753 mmHg 66%
    19:00 +30°C° 0 mm 3 mps 754 mmHg 68%
    20:00 +30°C° 0 mm 3 mps 754 mmHg 71%
    21:00 +30°C° 0 mm 3 mps 755 mmHg 73%
    22:00 +29°C° 0 mm 2 mps 755 mmHg 75%
    23:00 +29°C° 0 mm 2 mps 755 mmHg 76%

    Tomorrow, 8 December, Sunday

    Time Temperature Precipitation Wind Pressure Humidity
    00:00 +29°C° 0 mm 2 mps 755 mmHg 78%
    01:00 +28°C° 0 mm 2 mps 754 mmHg 80%
    02:00 +28°C° 0 mm 2 mps 754 mmHg 81%
    03:00 +28°C° 0 mm 2 mps 754 mmHg 83%
    04:00 +28°C° 0.1 mm 2 mps 754 mmHg 84%
    05:00 +28°C° 0.1 mm 2 mps 755 mmHg 85%
    06:00 +27°C° 0.1 mm 1 mps 755 mmHg 87%
    07:00 +29°C° 0.1 mm 1 mps 755 mmHg 79%
    08:00 +30°C° 0.1 mm 2 mps 756 mmHg 72%
    09:00 +32°C° 0.1 mm 2 mps 756 mmHg 64%
    10:00 +34°C° 0 mm 2 mps 756 mmHg 58%
    11:00 +35°C° 0 mm 2 mps 755 mmHg 53%
    12:00 +37°C° 0 mm 2 mps 755 mmHg 47%
    13:00 +36°C° 0.1 mm 3 mps 754 mmHg 48%
    14:00 +36°C° 0.1 mm 3 mps 754 mmHg 50%
    15:00 +35°C° 0.1 mm 4 mps 753 mmHg 52%
    16:00 +34°C° 0.2 mm 4 mps 753 mmHg 58%
    17:00 +32°C° 0.2 mm 4 mps 753 mmHg 64%
    18:00 +30°C° 0.2 mm 4 mps 754 mmHg 71%
    19:00 +29°C° 0 mm 4 mps 754 mmHg 73%
    20:00 +29°C° 0 mm 3 mps 755 mmHg 75%
    21:00 +29°C° 0 mm 2 mps 755 mmHg 76%
    22:00 +29°C° 0 mm 2 mps 755 mmHg 77%
    23:00 +28°C° 0 mm 2 mps 755 mmHg 78%

    Day after tomorrow, 9 December, Monday

    Time Temperature Precipitation Wind Pressure Humidity
    00:00 +28°C° 0 mm 2 mps 755 mmHg 79%
    01:00 +28°C° 0 mm 2 mps 755 mmHg 81%
    02:00 +28°C° 0 mm 2 mps 754 mmHg 82%
    03:00 +27°C° 0 mm 2 mps 754 mmHg 83%
    04:00 +27°C° 0 mm 1 mps 754 mmHg 84%
    05:00 +27°C° 0 mm 1 mps 755 mmHg 86%
    06:00 +25°C° 0 mm 0 mps 755 mmHg 87%
    07:00 +28°C° 0 mm 1 mps 756 mmHg 80%
    08:00 +30°C° 0 mm 2 mps 756 mmHg 73%
    09:00 +32°C° 0 mm 2 mps 756 mmHg 66%
    10:00 +34°C° 0 mm 2 mps 756 mmHg 61%
    11:00 +34°C° 0 mm 2 mps 755 mmHg 57%
    12:00 +35°C° 0 mm 2 mps 755 mmHg 52%
    13:00 +35°C° 0 mm 3 mps 754 mmHg 52%
    14:00 +35°C° 0 mm 3 mps 754 mmHg 53%
    15:00 +35°C° 0 mm 4 mps 753 mmHg 53%
    16:00 +34°C° 0 mm 4 mps 753 mmHg 59%
    17:00 +32°C° 0 mm 4 mps 753 mmHg 65%
    18:00 +30°C° 0 mm 4 mps 754 mmHg 71%
    19:00 +30°C° 0 mm 4 mps 754 mmHg 73%
    20:00 +29°C° 0 mm 3 mps 755 mmHg 76%
    21:00 +29°C° 0 mm 3 mps 755 mmHg 78%
    22:00 +29°C° 0 mm 3 mps 755 mmHg 79%
    23:00 +28°C° 0 mm 3 mps 755 mmHg 80%

    10 December, Tuesday

    Time Temperature Precipitation Wind Pressure Humidity
    00:00 +28°C° 0 mm 3 mps 755 mmHg 81%
    01:00 +28°C° 0 mm 3 mps 755 mmHg 82%
    02:00 +28°C° 0 mm 2 mps 754 mmHg 83%
    03:00 +27°C° 0 mm 2 mps 754 mmHg 84%
    04:00 +27°C° 0 mm 2 mps 754 mmHg 85%
    05:00 +27°C° 0 mm 1 mps 755 mmHg 86%
    06:00 +27°C° 0 mm 1 mps 755 mmHg 88%
    07:00 +28°C° 0 mm 1 mps 755 mmHg 79%
    08:00 +30°C° 0 mm 2 mps 756 mmHg 71%
    09:00 +32°C° 0 mm 2 mps 756 mmHg 62%
    10:00 +34°C° 0.1 mm 2 mps 756 mmHg 59%
    11:00 +35°C° 0.1 mm 2 mps 756 mmHg 55%
    12:00 +36°C° 0.1 mm 2 mps 755 mmHg 51%
    13:00 +35°C° 0.3 mm 3 mps 754 mmHg 53%
    14:00 +35°C° 0.3 mm 3 mps 754 mmHg 54%
    15:00 +34°C° 0.3 mm 4 mps 753 mmHg 55%
    16:00 +33°C° 0.1 mm 4 mps 753 mmHg 61%
    17:00 +32°C° 0.1 mm 4 mps 753 mmHg 66%
    18:00 +29°C° 0.1 mm 4 mps 754 mmHg 71%
    19:00 +29°C° 0 mm 3 mps 754 mmHg 74%
    20:00 +29°C° 0 mm 3 mps 755 mmHg 76%
    21:00 +29°C° 0 mm 3 mps 755 mmHg 78%
    22:00 +28°C° 0 mm 3 mps 755 mmHg 79%
    23:00 +28°C° 0 mm 3 mps 755 mmHg 80%

    11 December, Wednesday

    Time Temperature Precipitation Wind Pressure Humidity
    00:00 +28°C° 0 mm 2 mps 755 mmHg 81%
    01:00 +28°C° 0 mm 2 mps 754 mmHg 82%
    02:00 +27°C° 0 mm 2 mps 754 mmHg 84%
    03:00 +27°C° 0 mm 2 mps 754 mmHg 85%
    04:00 +27°C° 0 mm 2 mps 754 mmHg 86%
    05:00 +27°C° 0 mm 1 mps 755 mmHg 88%
    06:00 +26°C° 0 mm 1 mps 755 mmHg 89%
    07:00 +28°C° 0 mm 1 mps 755 mmHg 81%
    08:00 +30°C° 0 mm 2 mps 756 mmHg 73%
    09:00 +31°C° 0 mm 2 mps 756 mmHg 65%
    10:00 +33°C° 0.1 mm 3 mps 756 mmHg 62%
    11:00 +34°C° 0.1 mm 3 mps 755 mmHg 58%
    12:00 +35°C° 0.1 mm 3 mps 755 mmHg 55%
    13:00 +34°C° 0.2 mm 3 mps 754 mmHg 55%
    14:00 +34°C° 0.2 mm 3 mps 754 mmHg 55%
    15:00 +34°C° 0.2 mm 3 mps 753 mmHg 54%
    16:00 +33°C° 0 mm 3 mps 753 mmHg 60%
    17:00 +32°C° 0 mm 4 mps 753 mmHg 65%
    18:00 +30°C° 0 mm 4 mps 753 mmHg 70%
    19:00 +29°C° 0 mm 3 mps 754 mmHg 72%
    20:00 +29°C° 0 mm 3 mps 754 mmHg 74%
    21:00 +28°C° 0 mm 2 mps 755 mmHg 77%
    22:00 +28°C° 0 mm 2 mps 755 mmHg 78%
    23:00 +28°C° 0 mm 2 mps 755 mmHg 79%

    12 December, Thursday

    Time Temperature Precipitation Wind Pressure Humidity
    00:00 +28°C° 0 mm 2 mps 755 mmHg 81%
    01:00 +28°C° 0 mm 2 mps 754 mmHg 82%
    02:00 +27°C° 0 mm 2 mps 754 mmHg 83%
    03:00 +27°C° 0 mm 2 mps 754 mmHg 84%
    04:00 +27°C° 0.1 mm 1 mps 754 mmHg 86%
    05:00 +27°C° 0.1 mm 1 mps 754 mmHg 87%
    06:00 +26°C° 0.1 mm 1 mps 755 mmHg 88%
    07:00 +28°C° 0.1 mm 1 mps 755 mmHg 80%
    08:00 +30°C° 0.1 mm 1 mps 756 mmHg 71%
    09:00 +32°C° 0.1 mm 2 mps 756 mmHg 62%
    10:00 +34°C° 0 mm 2 mps 756 mmHg 56%
    11:00 +35°C° 0 mm 2 mps 755 mmHg 51%
    12:00 +36°C° 0 mm 2 mps 755 mmHg 45%
    13:00 +36°C° 0.1 mm 3 mps 754 mmHg 48%
    14:00 +35°C° 0.1 mm 4 mps 753 mmHg 51%
    15:00 +34°C° 0.1 mm 4 mps 753 mmHg 55%
    16:00 +33°C° 0.1 mm 4 mps 753 mmHg 60%
    17:00 +32°C° 0.1 mm 4 mps 753 mmHg 65%
    18:00 +30°C° 0.1 mm 3 mps 754 mmHg 70%
    19:00 +29°C° 0 mm 3 mps 754 mmHg 72%
    20:00 +29°C° 0 mm 3 mps 755 mmHg 74%
    21:00 +29°C° 0 mm 2 mps 756 mmHg 76%
    22:00 +28°C° 0 mm 2 mps 755 mmHg 77%
    23:00 +28°C° 0 mm 2 mps 755 mmHg 78%
    Show more